SCP
0 0 0 0 0 0 0 0 0 0 0 0 0 0 0 0 0 0 0 0 0 0 0 0 0 0 0 0 0 0 0 0 0 0 0 0 0 0 0 0 0 0 0
0 0 0 0 0 0 0 0 0 0 0 0 0 0 0 0 0 0 0 0 0 0 0 0 0 0 0 0 0 0 0 0 0 0 0 0 0 0 0 0 0 0 0
0 0 0 0 0 0 0 0 0 0 0 0 0 0 0 0 0 0 0 0 0 0 0 0 0 0 0 0 0 0 0 0 0 0 0 0 0 0 0 0 0 0 0
0 0 0 0 0 0 0 0 0 0 0 0 0 0 0 0 0 0 0 0 0 0 0 0 0 0 0 0 0 0 0 0 0 0 0 0 0 0 0 0 0 0 0
0 0 0 0 0 0 0 0 0 0 0 0 0 0 0 0 0 0 0 0 0 0 0 0 0 0 0 0 0 0 0 0 0 0 0 0 0 0 0 0 0 0 0
0 0 0 0 0 0 0 0 0 0 0 0 0 0 0 0 0 0 0 0 0 0 0 0 0 0 0 0 0 0 0 0 0 0 0 0 0 0 0 0 0 0 0
0 0 0 0 0 0 0 0 0 0 0 0 0 0 0 0 0 0 0 0 0 0 0 0 0 0 0 0 0 0 0 0 0 0 0 0 0 0 0 0 0 0 0
0 0 0 0 0 0 0 0 0 0 0 0 0 0 0 0 0 0 0 0 0 0 0 0 0 0 0 0 0 0 0 0 0 0 0 0 0 0 0 0 0 0 0
0 0 0 0 0 0 0 0 0 0 0 0 0 0 0 0 0 0 0 0 0 0 0 0 0 0 0 0 0 0 0 0 0 0 0 -0 0 0 0 0 0 0 0
0 0 0 0 0 0 0 0 0 0 0 0 0 0 0 0 -0 0 0 0 0 0 0 0 0 0 0 0 0 0 0 0 0 0 0 0 0 0 0 0 0 0 0
0 0 0 0 0 0 0 0 0 0 0 0 0 0 0 0 0 0 0 0 0 0 0 0 0 0 0 0 0 0 0 0 0 0 0 0 0 0 0 0 0 0 0
0 0 0 0 0 0 0 0 0 0 0 0 0 0 0 0 -0 0 0 0 0 0 0 0 0 0 0 0 0 0 0 0 0 0 0 0 0 0 0 0 0 0 0
0 0 0 0 0 0 0 0 0 0 0 0 0 0 0 0 0 0 0 0 0 0 0 0 0 0 0 0 0 0 0 0 0 0 0 0 0 0 0 0 0 0 0
0 0 0 0 0 0 0 0 0 0 0 0 0 0 0 0 0 0 0 0 0 0 0 0 0 0 0 0 0 0 0 0 0 0 0 0 0 0 0 0 0 0 0
0 0 0 0 0 0 0 0 0 0 0 0 0 0 0 0 0 0 0 0 0 0 0 0 0 0 0 0 0 0 0 0 0 0 0 0 0 0 0 -0 0 -0 0
0 0 0 0 0 0 0 0 0 0 0 0 0 0 0 0 0 0 0 0 0 0 0 0 0 0 0 0 0 0 0 0 0 0 0 0 0 0 -0 -0 0 0 0
0 0 0 0 0 0 0 0 0 0 0 0 0 0 0 0 0 0 0 0 0 0 0 0 0 0 0 0 0 0 0 0 0 0 0 0 0 0 0 0 0 0 0
0 0 0 0 0 0 0 0 0 0 0 0 0 0 0 0 0 0 0 0 0 0 0 0 0 0 0 0 0 0 0 0 0 0 0 0 0 0 0 0 0 0 0
0 0 0 0 0 0 0 0 0 0 0 0 0 0 0 0 0 0 0 0 0 0 0 0 0 0 0 0 0 0 0 0 0 0 0 0 0 0 0 0 0 0 0
0 0 0 0 0 0 0 0 0 0 0 0 0 0 0 0 0 0 0 0 0 0 0 0 0 0 0 0 0 0 0 0 0 0 0 0 0 0 0 0 0 0 0
0 0 0 0 0 0 0 -0 -0 -0 -0 0 0 0 0 0 0 0 0 0 0 0 0 0 0 0 0 0 0 0 0 0 0 0 0 0 0 0 0 0 0 0 0
0 0 0 0 0 -0 -0 -0 -0 0 0 0 0 0 0 0 0 0 0 0 0 0 0 0 0 0 0 0 0 0 0 0 0 0 0 0 0 0 0 0 0 0 0
0 0 -0 -0 -0 -0 0 -0 0 0 0 0 0 0 0 0 0 0 0 0 0 0 0 0 0 0 0 0 0 0 0 0 0 0 0 0 0 0 0 0 0 0 0
0 -0 -0 -0 0 0 0 0 0 0 0 0 -0 0 0 0 0 0 0 0 0 0 0 0 0 0 0 0 0 0 0 0 0 0 0 0 -0 -0 0 -0 0 0 0
0 -0 -0 0 0 0 0 0 0 0 0 0 0 0 0 0 0 0 0 0 0 0 0 0 0 0 0 0 0 0 0 0 0 0 0 0 0 0 0 -0 -0 -0 -0
-0 -0 0 -0 -0 0 0 0 0 0 0 0 0 0 0 0 0 0 0 0 0 0 0 0 0 0 0 0 0 0 0 0 0 0 0 0 0 0 0 0 -0 -0 -0
Wind_Speed_500mb
23 28 32 35 38 39 41 43 46 46 46 49 53 55 54 52 50 54 54 54 59 62 63 65 63 60 60 59 57 58 59 53 65 84 79 77 76 78 75 63 61 63 64
33 37 41 43 44 44 43 44 46 47 45 47 48 49 52 56 58 61 62 61 63 63 61 65 65 63 63 61 59 61 60 61 60 75 81 78 78 75 75 67 68 64 70
41 43 43 43 45 46 47 48 47 49 49 49 51 51 51 51 52 55 62 66 67 68 66 65 65 65 65 62 59 61 64 63 67 68 83 79 78 78 76 70 72 78 79
43 44 43 43 45 46 46 47 49 50 53 54 54 56 56 55 54 55 58 63 67 68 67 67 66 67 65 62 60 62 61 65 65 69 75 78 77 77 73 74 84 80 84
40 40 39 42 44 45 47 49 50 50 52 55 58 58 60 62 59 59 60 62 65 68 66 65 66 67 63 61 60 60 62 65 63 66 71 75 77 78 71 76 81 85 85
39 41 42 45 46 46 49 52 53 54 56 58 60 62 64 66 63 63 64 64 66 67 68 67 64 64 63 61 59 60 62 60 63 61 67 71 78 72 70 75 76 78 78
40 40 45 48 52 53 55 56 57 60 62 60 62 64 67 66 66 69 66 68 66 69 69 65 65 63 60 59 59 62 62 59 60 58 67 68 73 65 66 70 67 73 73
46 49 53 56 59 59 61 63 64 68 69 69 68 68 73 69 66 69 71 70 71 69 69 66 62 63 58 57 60 63 61 57 55 56 62 63 62 57 61 55 65 67 62
61 61 59 59 63 64 66 67 68 74 76 75 75 75 78 84 74 70 68 70 73 70 66 65 65 63 58 54 62 65 57 55 50 53 55 56 53 49 43 51 48 56 63
66 64 63 65 67 70 70 70 72 76 80 78 78 75 78 85 84 75 61 63 69 67 64 68 68 55 53 52 61 58 57 49 49 50 50 51 45 40 38 37 40 46 42
63 65 67 66 69 70 73 74 76 79 80 81 81 78 79 80 83 70 55 54 59 63 65 68 66 50 46 49 53 53 51 46 49 46 49 46 35 30 30 27 32 27 24
66 70 70 71 71 72 75 78 79 79 82 83 82 83 82 79 74 60 48 46 52 60 64 65 60 40 45 48 48 46 45 46 46 44 48 35 27 21 20 18 15 13 17
73 74 74 75 76 75 77 79 79 79 81 84 83 86 86 75 62 56 45 43 50 56 60 59 50 39 42 48 44 43 44 42 38 44 40 28 18 17 12 5 5 9 15
76 77 77 80 82 81 78 77 78 80 81 83 85 87 83 68 55 54 44 42 41 47 49 55 55 47 43 44 43 41 40 35 35 37 28 21 16 13 10 6 8 14 18
74 76 79 82 84 81 81 82 83 83 77 77 81 81 82 76 57 53 49 46 44 37 43 49 59 59 50 45 42 38 36 30 32 25 20 14 13 15 11 3 6 11 9
76 77 79 80 79 79 84 90 91 88 80 76 71 72 82 86 66 54 59 50 44 39 39 52 55 54 52 45 40 35 32 29 27 21 16 15 16 17 10 4 3 6 11
72 76 77 75 77 81 82 92 97 90 86 83 77 72 67 64 47 55 56 53 44 39 52 57 56 52 47 44 38 35 27 29 23 26 16 20 20 15 8 7 6 9 14
72 75 73 77 77 77 87 86 82 88 93 92 70 60 50 50 51 54 53 47 51 50 59 64 57 47 45 42 37 33 28 28 25 29 23 23 18 14 12 11 13 14 16
72 73 73 74 76 85 80 77 81 84 86 85 73 51 39 42 41 45 46 52 62 58 62 60 50 43 44 39 35 31 31 26 25 30 29 25 17 17 19 19 21 18 12
71 72 71 76 79 76 74 76 78 78 79 76 67 49 34 35 40 40 45 54 64 64 64 55 46 42 43 38 36 32 34 27 28 30 29 26 22 24 22 27 20 14 13
74 77 75 74 74 73 75 74 72 74 72 69 62 44 35 40 44 43 44 52 65 66 64 55 43 45 44 38 37 36 34 29 29 29 28 28 29 30 32 24 22 18 17
72 74 74 74 74 74 72 70 72 71 67 65 57 47 37 37 44 52 48 48 60 62 56 46 42 47 45 41 38 39 36 34 33 34 33 33 34 34 31 27 23 23 23
73 75 75 75 72 69 69 69 67 62 60 58 53 50 38 37 40 47 48 48 56 57 52 49 47 49 45 40 37 37 32 32 32 34 38 38 37 34 31 27 26 26 24
70 70 69 67 64 65 64 63 59 56 54 52 48 46 39 40 44 41 42 45 49 50 49 51 52 51 48 45 44 40 35 34 35 36 36 35 37 38 35 31 28 24 24
70 68 65 63 62 61 60 57 54 53 51 45 42 40 39 42 38 36 37 43 43 45 48 54 56 53 51 47 47 46 43 40 40 42 40 35 34 37 35 31 29 27 24
67 64 62 61 59 55 53 51 50 47 40 36 33 28 32 38 30 35 39 40 36 43 49 56 58 55 52 51 49 47 46 44 44 44 42 40 40 42 38 33 30 27 24
Wind_Direction_500mb
303 301 300 297 295 294 294 293 292 292 291 290 286 283 284 284 284 283 284 284 281 280 278 279 280 283 285 287 290 290 290 278 278 294 301 309 314 315 316 317 320 316 312
310 307 305 304 301 298 295 293 291 290 290 292 291 291 289 285 282 282 284 284 283 282 280 276 276 278 281 284 287 287 286 283 284 287 304 309 311 316 315 321 322 318 318
306 303 300 300 299 300 300 300 298 295 293 290 289 289 289 290 289 287 283 282 281 280 279 277 275 274 277 281 285 284 286 285 291 289 301 307 312 316 319 322 324 324 322
296 293 292 294 297 300 302 304 303 300 297 294 292 290 289 290 290 291 289 285 281 281 280 277 274 271 274 278 281 282 286 286 291 292 299 306 311 316 321 325 319 323 322
293 294 294 294 297 297 299 301 304 304 302 300 296 293 292 290 289 288 287 286 284 282 279 276 272 269 270 273 276 279 285 286 288 292 298 303 309 316 320 318 319 322 325
294 299 302 305 306 303 302 303 302 302 303 301 299 299 296 294 294 289 286 286 285 284 282 278 273 267 265 268 272 275 282 284 286 289 297 299 305 313 314 315 318 324 324
303 307 310 310 308 307 306 305 304 303 301 301 300 300 298 297 295 292 288 284 284 284 283 277 273 265 262 265 269 270 277 281 286 288 291 296 303 306 310 313 316 313 316
307 310 312 308 306 306 305 303 302 302 302 301 301 302 302 299 297 293 287 283 282 282 283 275 270 266 258 262 268 267 274 279 283 285 287 294 296 300 300 304 306 313 317
306 308 306 304 303 303 301 302 301 300 301 303 302 302 304 304 302 295 287 281 279 280 281 277 269 263 256 259 263 267 274 278 285 289 293 294 291 289 292 302 313 316 321
300 303 303 305 303 301 301 300 299 298 300 301 300 299 301 303 302 298 287 278 277 279 277 276 270 262 254 255 256 268 275 284 286 289 290 289 289 294 296 303 308 312 326
299 302 305 305 303 301 299 298 298 299 300 301 301 299 300 302 300 296 284 273 272 274 272 272 272 262 258 254 255 266 275 282 284 290 291 291 294 289 300 300 301 316 331
302 303 302 303 304 300 298 298 298 298 299 302 302 301 303 304 302 295 283 271 267 265 265 268 269 257 256 249 254 266 273 277 285 289 288 287 297 290 290 299 318 353 8
301 302 301 302 302 299 297 297 297 298 300 302 302 303 303 304 296 291 282 271 269 261 257 262 264 257 252 245 253 263 267 274 281 283 281 287 281 270 268 286 315 331 350
299 300 301 301 301 298 296 297 298 299 301 301 301 300 299 297 287 289 284 280 280 258 253 252 260 264 254 244 249 258 268 271 277 276 273 282 254 235 224 223 301 322 336
300 301 300 298 298 298 297 298 298 298 298 297 297 295 293 289 274 281 286 284 285 270 253 249 247 251 247 242 247 255 261 266 269 262 269 248 215 199 195 199 309 345 348
302 300 297 298 296 295 296 297 297 298 297 294 287 279 278 274 272 268 274 271 272 270 251 244 246 246 242 239 244 251 253 256 243 244 245 201 173 165 149 180 73 50 66
298 298 297 294 293 294 295 296 298 297 296 297 298 290 276 271 265 272 263 266 263 250 249 246 245 245 237 234 240 245 248 245 223 226 209 190 174 171 168 142 115 113 100
297 295 291 290 292 292 292 294 293 296 299 300 298 289 263 250 254 257 262 256 254 239 241 243 240 236 230 231 234 237 239 232 223 216 191 188 186 185 168 150 145 134 110
297 294 294 294 294 294 294 293 293 294 296 298 297 280 250 245 249 259 255 249 244 240 238 237 238 225 225 225 228 228 228 217 216 199 186 196 192 180 161 151 143 131 109
298 297 296 294 292 292 291 293 293 294 295 294 288 277 261 269 269 261 260 240 239 236 238 235 232 216 219 218 221 221 218 202 205 194 187 187 177 169 156 152 144 133 122
303 300 298 296 294 293 293 292 294 293 290 287 280 264 263 278 277 279 270 252 232 232 234 229 224 211 213 211 213 216 206 195 197 190 182 178 173 163 155 155 140 135 131
302 299 297 295 295 295 295 295 293 290 286 281 273 257 264 269 268 278 267 250 235 231 229 223 215 209 210 210 207 208 194 189 190 185 175 169 164 159 155 149 142 137 122
301 300 299 297 296 294 293 292 289 287 282 278 269 259 266 274 283 277 256 244 235 229 223 218 209 202 202 202 200 201 188 187 184 182 170 165 161 158 155 150 146 132 123
302 300 298 296 294 293 291 289 287 284 280 275 262 255 261 274 285 269 246 238 230 222 220 210 203 196 194 192 192 182 170 179 181 174 169 166 161 158 154 153 143 135 130
307 305 303 300 298 295 292 289 287 284 279 268 257 256 260 274 280 255 238 231 222 218 208 203 197 192 188 189 190 175 171 174 176 170 165 165 162 158 154 151 143 134 124
308 306 303 300 296 293 292 290 288 284 272 254 255 261 274 279 267 243 236 223 217 207 196 193 191 188 183 183 183 176 169 172 174 171 166 163 163 160 157 156 149 144 135
Wind_Speed_850mb
23 28 32 35 38 39 41 43 46 46 46 49 53 55 54 52 50 54 54 54 59 62 63 65 63 60 60 59 57 58 59 53 65 84 79 77 76 78 75 63 61 63 64
33 37 41 43 44 44 43 44 46 47 45 47 48 49 52 56 58 61 62 61 63 63 61 65 65 63 63 61 59 61 60 61 60 75 81 78 78 75 75 67 68 64 70
41 43 43 43 45 46 47 48 47 49 49 49 51 51 51 51 52 55 62 66 67 68 66 65 65 65 65 62 59 61 64 63 67 68 83 79 78 78 76 70 72 78 79
43 44 43 43 45 46 46 47 49 50 53 54 54 56 56 55 54 55 58 63 67 68 67 67 66 67 65 62 60 62 61 65 65 69 75 78 77 77 73 74 84 80 84
40 40 39 42 44 45 47 49 50 50 52 55 58 58 60 62 59 59 60 62 65 68 66 65 66 67 63 61 60 60 62 65 63 66 71 75 77 78 71 76 81 85 85
39 41 42 45 46 46 49 52 53 54 56 58 60 62 64 66 63 63 64 64 66 67 68 67 64 64 63 61 59 60 62 60 63 61 67 71 78 72 70 75 76 78 78
40 40 45 48 52 53 55 56 57 60 62 60 62 64 67 66 66 69 66 68 66 69 69 65 65 63 60 59 59 62 62 59 60 58 67 68 73 65 66 70 67 73 73
46 49 53 56 59 59 61 63 64 68 69 69 68 68 73 69 66 69 71 70 71 69 69 66 62 63 58 57 60 63 61 57 55 56 62 63 62 57 61 55 65 67 62
61 61 59 59 63 64 66 67 68 74 76 75 75 75 78 84 74 70 68 70 73 70 66 65 65 63 58 54 62 65 57 55 50 53 55 56 53 49 43 51 48 56 63
66 64 63 65 67 70 70 70 72 76 80 78 78 75 78 85 84 75 61 63 69 67 64 68 68 55 53 52 61 58 57 49 49 50 50 51 45 40 38 37 40 46 42
63 65 67 66 69 70 73 74 76 79 80 81 81 78 79 80 83 70 55 54 59 63 65 68 66 50 46 49 53 53 51 46 49 46 49 46 35 30 30 27 32 27 24
66 70 70 71 71 72 75 78 79 79 82 83 82 83 82 79 74 60 48 46 52 60 64 65 60 40 45 48 48 46 45 46 46 44 48 35 27 21 20 18 15 13 17
73 74 74 75 76 75 77 79 79 79 81 84 83 86 86 75 62 56 45 43 50 56 60 59 50 39 42 48 44 43 44 42 38 44 40 28 18 17 12 5 5 9 15
76 77 77 80 82 81 78 77 78 80 81 83 85 87 83 68 55 54 44 42 41 47 49 55 55 47 43 44 43 41 40 35 35 37 28 21 16 13 10 6 8 14 18
74 76 79 82 84 81 81 82 83 83 77 77 81 81 82 76 57 53 49 46 44 37 43 49 59 59 50 45 42 38 36 30 32 25 20 14 13 15 11 3 6 11 9
76 77 79 80 79 79 84 90 91 88 80 76 71 72 82 86 66 54 59 50 44 39 39 52 55 54 52 45 40 35 32 29 27 21 16 15 16 17 10 4 3 6 11
72 76 77 75 77 81 82 92 97 90 86 83 77 72 67 64 47 55 56 53 44 39 52 57 56 52 47 44 38 35 27 29 23 26 16 20 20 15 8 7 6 9 14
72 75 73 77 77 77 87 86 82 88 93 92 70 60 50 50 51 54 53 47 51 50 59 64 57 47 45 42 37 33 28 28 25 29 23 23 18 14 12 11 13 14 16
72 73 73 74 76 85 80 77 81 84 86 85 73 51 39 42 41 45 46 52 62 58 62 60 50 43 44 39 35 31 31 26 25 30 29 25 17 17 19 19 21 18 12
71 72 71 76 79 76 74 76 78 78 79 76 67 49 34 35 40 40 45 54 64 64 64 55 46 42 43 38 36 32 34 27 28 30 29 26 22 24 22 27 20 14 13
74 77 75 74 74 73 75 74 72 74 72 69 62 44 35 40 44 43 44 52 65 66 64 55 43 45 44 38 37 36 34 29 29 29 28 28 29 30 32 24 22 18 17
72 74 74 74 74 74 72 70 72 71 67 65 57 47 37 37 44 52 48 48 60 62 56 46 42 47 45 41 38 39 36 34 33 34 33 33 34 34 31 27 23 23 23
73 75 75 75 72 69 69 69 67 62 60 58 53 50 38 37 40 47 48 48 56 57 52 49 47 49 45 40 37 37 32 32 32 34 38 38 37 34 31 27 26 26 24
70 70 69 67 64 65 64 63 59 56 54 52 48 46 39 40 44 41 42 45 49 50 49 51 52 51 48 45 44 40 35 34 35 36 36 35 37 38 35 31 28 24 24
70 68 65 63 62 61 60 57 54 53 51 45 42 40 39 42 38 36 37 43 43 45 48 54 56 53 51 47 47 46 43 40 40 42 40 35 34 37 35 31 29 27 24
67 64 62 61 59 55 53 51 50 47 40 36 33 28 32 38 30 35 39 40 36 43 49 56 58 55 52 51 49 47 46 44 44 44 42 40 40 42 38 33 30 27 24
Wind_Direction_850mb
303 301 300 297 295 294 294 293 292 292 291 290 286 283 284 284 284 283 284 284 281 280 278 279 280 283 285 287 290 290 290 278 278 294 301 309 314 315 316 317 320 316 312
310 307 305 304 301 298 295 293 291 290 290 292 291 291 289 285 282 282 284 284 283 282 280 276 276 278 281 284 287 287 286 283 284 287 304 309 311 316 315 321 322 318 318
306 303 300 300 299 300 300 300 298 295 293 290 289 289 289 290 289 287 283 282 281 280 279 277 275 274 277 281 285 284 286 285 291 289 301 307 312 316 319 322 324 324 322
296 293 292 294 297 300 302 304 303 300 297 294 292 290 289 290 290 291 289 285 281 281 280 277 274 271 274 278 281 282 286 286 291 292 299 306 311 316 321 325 319 323 322
293 294 294 294 297 297 299 301 304 304 302 300 296 293 292 290 289 288 287 286 284 282 279 276 272 269 270 273 276 279 285 286 288 292 298 303 309 316 320 318 319 322 325
294 299 302 305 306 303 302 303 302 302 303 301 299 299 296 294 294 289 286 286 285 284 282 278 273 267 265 268 272 275 282 284 286 289 297 299 305 313 314 315 318 324 324
303 307 310 310 308 307 306 305 304 303 301 301 300 300 298 297 295 292 288 284 284 284 283 277 273 265 262 265 269 270 277 281 286 288 291 296 303 306 310 313 316 313 316
307 310 312 308 306 306 305 303 302 302 302 301 301 302 302 299 297 293 287 283 282 282 283 275 270 266 258 262 268 267 274 279 283 285 287 294 296 300 300 304 306 313 317
306 308 306 304 303 303 301 302 301 300 301 303 302 302 304 304 302 295 287 281 279 280 281 277 269 263 256 259 263 267 274 278 285 289 293 294 291 289 292 302 313 316 321
300 303 303 305 303 301 301 300 299 298 300 301 300 299 301 303 302 298 287 278 277 279 277 276 270 262 254 255 256 268 275 284 286 289 290 289 289 294 296 303 308 312 326
299 302 305 305 303 301 299 298 298 299 300 301 301 299 300 302 300 296 284 273 272 274 272 272 272 262 258 254 255 266 275 282 284 290 291 291 294 289 300 300 301 316 331
302 303 302 303 304 300 298 298 298 298 299 302 302 301 303 304 302 295 283 271 267 265 265 268 269 257 256 249 254 266 273 277 285 289 288 287 297 290 290 299 318 353 8
301 302 301 302 302 299 297 297 297 298 300 302 302 303 303 304 296 291 282 271 269 261 257 262 264 257 252 245 253 263 267 274 281 283 281 287 281 270 268 286 315 331 350
299 300 301 301 301 298 296 297 298 299 301 301 301 300 299 297 287 289 284 280 280 258 253 252 260 264 254 244 249 258 268 271 277 276 273 282 254 235 224 223 301 322 336
300 301 300 298 298 298 297 298 298 298 298 297 297 295 293 289 274 281 286 284 285 270 253 249 247 251 247 242 247 255 261 266 269 262 269 248 215 199 195 199 309 345 348
302 300 297 298 296 295 296 297 297 298 297 294 287 279 278 274 272 268 274 271 272 270 251 244 246 246 242 239 244 251 253 256 243 244 245 201 173 165 149 180 73 50 66
298 298 297 294 293 294 295 296 298 297 296 297 298 290 276 271 265 272 263 266 263 250 249 246 245 245 237 234 240 245 248 245 223 226 209 190 174 171 168 142 115 113 100
297 295 291 290 292 292 292 294 293 296 299 300 298 289 263 250 254 257 262 256 254 239 241 243 240 236 230 231 234 237 239 232 223 216 191 188 186 185 168 150 145 134 110
297 294 294 294 294 294 294 293 293 294 296 298 297 280 250 245 249 259 255 249 244 240 238 237 238 225 225 225 228 228 228 217 216 199 186 196 192 180 161 151 143 131 109
298 297 296 294 292 292 291 293 293 294 295 294 288 277 261 269 269 261 260 240 239 236 238 235 232 216 219 218 221 221 218 202 205 194 187 187 177 169 156 152 144 133 122
303 300 298 296 294 293 293 292 294 293 290 287 280 264 263 278 277 279 270 252 232 232 234 229 224 211 213 211 213 216 206 195 197 190 182 178 173 163 155 155 140 135 131
302 299 297 295 295 295 295 295 293 290 286 281 273 257 264 269 268 278 267 250 235 231 229 223 215 209 210 210 207 208 194 189 190 185 175 169 164 159 155 149 142 137 122
301 300 299 297 296 294 293 292 289 287 282 278 269 259 266 274 283 277 256 244 235 229 223 218 209 202 202 202 200 201 188 187 184 182 170 165 161 158 155 150 146 132 123
302 300 298 296 294 293 291 289 287 284 280 275 262 255 261 274 285 269 246 238 230 222 220 210 203 196 194 192 192 182 170 179 181 174 169 166 161 158 154 153 143 135 130
307 305 303 300 298 295 292 289 287 284 279 268 257 256 260 274 280 255 238 231 222 218 208 203 197 192 188 189 190 175 171 174 176 170 165 165 162 158 154 151 143 134 124
308 306 303 300 296 293 292 290 288 284 272 254 255 261 274 279 267 243 236 223 217 207 196 193 191 188 183 183 183 176 169 172 174 171 166 163 163 160 157 156 149 144 135